Location: Antioch Baptist Church
(32.6696°N, 85.7327°W)
Time: 12:27:18
(UTC+00:00)

Cosmos 1271 Rocket - Pass Details

Date: 14 July 2020
Orbit: 497 x 546 km, 81.2° (Epoch: 09 August)

Event Time Altitude Azimuth Distance (km) Brightness Sun altitude
Rises 09:04:49 0° 356° (N) 2,606 6.8 -18.4°
Reaches altitude 10° 09:06:59 10° 1° (N) 1,712 5.9 -18.0°
Maximum altitude 09:10:41 59° 81° (E) 581 3.1 -17.5°
Drops below altitude 10° 09:14:20 10° 161° (SSE) 1,691 5.1 -16.9°
Enters shadow 09:14:28 - 162° (SSE) 1,746 5.2 -16.9°
